Theta_e
335 342 349 348 348 347 346 344 344 342 342 342 341 341 340 339 340 343 344 345 345 342 340 339 338 338 337 337 338 338 337 336 337 338 338 338 337 337 337 338 337 335 336
338 342 346 348 348 348 347 345 344 342 340 340 339 338 339 339 339 339 342 344 345 342 339 338 338 337 336 336 335 336 336 335 334 334 337 336 336 336 337 336 337 333 335
339 342 346 347 348 348 347 346 344 341 341 338 340 340 338 338 338 338 342 343 342 342 338 338 338 336 336 335 334 335 335 334 333 335 335 332 333 334 334 333 333 333 334
338 341 344 344 348 348 347 346 344 343 343 339 338 339 339 338 338 337 341 343 340 340 338 337 338 335 336 335 334 334 334 333 333 334 332 331 331 334 334 333 333 333 332
338 340 344 344 348 348 347 346 344 344 344 342 341 340 338 338 337 337 339 341 339 339 338 337 336 336 335 334 334 333 333 332 333 332 332 332 331 332 334 333 332 331 332
337 340 342 345 347 347 346 345 344 344 343 344 341 339 336 336 335 335 339 339 339 339 338 336 336 335 335 334 333 332 332 331 333 332 331 331 331 334 334 333 332 332 332
335 339 344 344 346 346 346 345 344 343 344 344 343 339 335 334 335 335 337 338 338 339 338 335 335 335 334 333 333 332 331 331 331 330 331 330 332 334 333 332 332 332 332
334 338 343 338 340 343 344 344 344 342 344 343 342 339 335 335 335 334 336 337 336 336 336 336 334 333 333 332 331 330 329 329 329 330 331 331 334 334 334 334 333 333 333
334 336 341 344 341 336 338 339 339 340 338 339 340 338 336 336 335 335 335 337 336 334 336 336 334 333 332 331 330 328 326 327 330 330 328 329 333 333 334 333 333 333 332
334 333 338 342 343 343 341 332 334 336 334 336 335 334 331 331 332 331 331 334 335 334 333 334 334 333 331 329 328 326 325 326 329 330 330 329 331 333 332 332 333 332 332
332 332 335 339 341 341 340 334 330 330 330 331 330 328 327 332 332 330 328 332 334 334 332 331 332 333 329 327 325 323 324 328 328 329 330 328 330 331 331 329 332 331 331
328 331 332 336 339 339 337 337 336 335 334 334 335 334 333 332 332 330 326 327 329 329 331 328 326 325 325 327 326 322 327 326 326 326 325 325 327 329 330 330 331 330 331
326 330 332 331 336 338 337 336 335 334 334 335 335 335 334 331 332 331 330 328 329 322 328 326 324 326 326 326 326 326 325 325 326 326 322 321 325 328 328 328 328 328 330
325 329 332 331 332 335 336 335 334 333 333 333 333 334 333 331 331 330 329 328 327 326 326 326 326 326 325 325 325 325 325 326 326 326 323 317 321 326 327 328 326 326 329
326 327 331 332 331 333 334 334 334 332 332 332 332 332 331 329 329 330 329 328 326 325 325 324 325 325 325 324 324 324 323 324 325 325 326 317 318 322 325 327 326 327 329
327 328 330 331 331 331 332 332 331 331 331 332 331 330 330 328 327 327 327 327 326 324 324 324 324 324 324 324 323 323 323 324 324 324 325 325 318 320 323 325 325 327 328
329 330 329 330 331 331 330 331 331 331 329 331 331 331 329 328 327 326 325 324 324 324 323 323 323 324 324 323 323 323 323 324 323 323 324 325 324 318 323 323 324 325 326
330 329 330 329 331 331 331 331 329 330 328 329 331 331 330 328 327 328 327 325 324 323 322 322 323 322 323 323 322 323 322 323 323 323 323 324 324 324 321 322 322 323 325
329 329 330 331 329 329 331 331 329 328 327 328 330 331 331 329 328 328 329 329 327 324 322 321 322 323 322 322 322 322 322 322 321 317 322 323 324 323 325 320 318 319 323
329 329 329 330 330 330 331 331 329 326 326 327 330 331 331 330 329 328 329 330 329 326 324 324 323 324 323 322 319 319 322 321 320 319 322 322 322 322 323 323 319 318 320
328 328 328 328 329 330 329 328 326 323 325 326 331 331 331 331 329 328 328 328 329 327 326 325 325 323 322 323 320 320 321 320 317 320 322 322 321 321 322 320 317 318 319
325 328 328 328 328 330 331 331 329 327 327 327 329 330 331 330 330 328 327 326 327 327 327 326 324 322 322 323 319 319 315 317 318 319 319 319 320 318 315 315 315 314 314
324 326 328 328 329 330 330 330 329 328 327 325 326 327 329 329 329 329 327 327 327 327 326 326 325 323 320 322 322 319 314 310 315 316 316 318 318 317 315 314 314 312 311
324 326 328 330 330 330 330 328 326 324 322 323 325 327 327 328 328 329 328 327 328 328 327 327 326 324 323 321 320 321 322 318 312 310 315 315 316 315 315 313 313 312 309
320 326 328 328 330 331 331 329 327 326 326 326 326 326 327 328 329 329 329 329 328 329 328 328 326 324 325 323 322 321 320 319 317 313 311 313 312 315 316 313 314 311 311
318 322 327 326 328 331 329 328 327 325 324 325 327 326 328 329 326 328 329 330 330 329 328 328 328 325 325 324 325 324 321 315 312 313 312 315 314 316 315 315 314 313 312
Wind_Speed
8 10 7 11 12 14 17 14 14 13 14 14 13 14 15 15 14 12 12 12 13 18 17 18 17 18 19 18 18 19 19 19 19 20 21 19 21 20 21 19 18 19 20
13 11 8 10 12 14 16 13 12 12 13 14 13 13 14 14 14 12 12 13 15 18 17 17 17 18 18 17 17 18 19 18 16 11 12 17 18 19 20 20 19 18 19
13 11 12 8 12 14 14 13 12 12 11 12 14 13 13 13 13 11 11 14 14 17 17 17 17 17 17 17 17 17 18 17 14 8 8 14 16 19 19 18 18 18 18
12 11 11 10 12 13 13 12 13 11 13 11 12 12 12 12 12 11 11 14 13 15 16 16 16 16 16 16 17 17 16 15 9 7 10 12 14 17 17 17 17 16 15
12 11 10 10 13 13 13 12 13 10 12 14 12 11 12 11 12 11 8 14 13 14 15 15 15 15 15 15 16 16 15 11 6 11 13 13 11 14 16 15 14 14 13
12 11 11 11 13 13 11 13 12 9 9 13 14 11 11 11 10 12 8 14 12 13 14 14 14 14 14 15 14 14 13 7 7 13 12 10 9 13 14 14 12 12 11
12 11 12 9 13 13 12 11 12 9 9 13 14 12 10 10 9 11 9 12 12 12 13 14 13 12 13 13 13 12 11 8 9 9 9 9 10 11 11 10 10 9 10
11 11 11 9 10 11 11 10 8 8 11 12 13 13 10 10 9 10 9 10 11 11 11 12 12 12 12 12 12 11 9 3 7 9 9 9 9 10 10 12 11 10 10
10 10 11 12 11 9 9 9 9 7 8 11 13 10 9 9 7 6 7 9 10 10 10 11 11 11 11 11 11 10 8 6 7 6 7 6 9 10 12 12 12 10 11
10 10 11 11 12 12 10 7 8 7 9 8 11 10 7 8 8 5 6 6 8 10 10 10 9 10 10 10 9 8 6 1 6 5 5 6 7 11 11 12 12 10 12
10 10 11 11 12 11 10 9 7 7 9 6 8 9 8 7 8 9 6 7 7 8 9 10 8 9 9 8 7 5 4 3 3 3 3 8 7 8 9 10 11 10 10
15 14 12 13 12 12 8 10 9 9 9 9 9 11 7 7 7 6 6 7 7 7 8 9 8 7 6 4 5 4 2 3 2 2 3 6 6 7 7 8 9 10 8
16 12 14 13 13 13 10 8 6 6 6 7 10 9 7 6 6 6 5 6 6 7 6 7 6 4 4 3 3 2 3 3 1 1 4 4 6 7 6 6 7 8 7
17 16 15 15 14 13 9 8 8 7 8 7 9 10 8 6 7 6 5 6 6 6 6 5 4 4 5 4 4 3 3 2 2 1 2 2 5 5 5 5 4 5 6
18 17 17 16 15 14 13 9 9 8 8 9 9 10 8 8 7 7 6 6 6 6 6 6 5 5 5 5 4 4 4 3 3 2 2 2 2 3 4 4 5 6 6
18 18 17 18 16 15 14 13 10 9 9 9 8 9 11 8 7 7 7 7 6 6 5 5 5 5 4 4 5 5 5 4 4 4 3 2 2 2 3 2 3 4 4
16 16 17 18 18 17 17 14 11 10 10 9 9 12 12 11 10 9 7 7 6 6 7 6 6 5 5 5 6 5 4 5 5 5 4 3 3 5 3 2 2 3 1
17 19 18 15 19 19 17 13 10 11 10 10 10 10 14 13 12 10 8 8 7 6 7 6 6 6 5 5 5 5 5 5 5 4 3 4 4 3 5 2 1 2 1
18 18 19 19 20 20 18 14 13 13 9 8 10 10 14 14 13 11 9 8 9 7 7 7 6 7 6 6 5 5 5 5 4 3 7 6 5 5 4 5 2 1 3
18 18 19 17 19 19 13 12 10 9 9 9 11 12 15 13 15 13 10 10 9 8 8 8 8 7 6 6 5 5 5 4 4 5 7 5 5 6 7 6 4 3 3
18 19 21 20 21 14 12 13 13 13 12 12 12 16 17 15 16 15 11 11 11 11 11 11 9 10 8 6 5 6 6 6 6 6 5 5 7 8 8 6 5 4 2
21 22 21 21 20 19 13 13 13 13 12 12 11 14 17 18 17 15 15 13 14 10 13 12 12 8 8 8 6 5 4 6 7 6 4 5 8 6 6 7 7 6 5
20 21 21 22 22 22 21 13 12 10 9 10 13 13 15 19 19 17 18 14 14 12 11 13 13 15 9 9 12 6 4 6 3 4 6 6 8 7 7 8 10 7 7
21 18 21 22 23 20 22 18 21 16 13 13 13 13 13 19 19 18 18 17 15 12 14 13 12 12 12 10 7 9 10 2 4 3 3 6 7 9 9 7 8 7 7
18 18 20 22 21 21 20 22 17 19 14 9 11 16 17 16 19 18 18 18 16 13 15 15 14 15 11 10 9 7 11 9 7 6 8 5 6 9 9 10 10 9 11
15 17 18 22 22 22 22 23 22 22 19 14 14 13 12 12 13 18 18 17 16 15 16 14 15 16 14 13 10 11 9 7 7 8 9 8 9 7 9 10 11 11 10
Wind_Direction
161 143 155 139 133 123 107 107 103 103 100 101 100 100 98 94 96 93 103 87 92 90 88 80 79 80 80 78 77 75 72 70 67 66 67 64 62 64 57 44 60 61 59
147 152 151 146 141 127 120 119 113 109 110 104 108 104 101 103 103 106 88 85 87 95 87 84 85 88 83 81 80 77 74 70 65 48 91 84 62 62 56 50 53 59 60
148 149 157 149 143 133 129 128 120 119 113 113 108 108 110 108 108 111 91 87 87 91 92 89 91 90 86 85 84 81 75 75 71 52 70 73 67 63 61 59 54 60 55
151 156 153 145 139 135 136 133 122 128 124 119 114 116 113 112 111 117 97 97 90 95 95 95 96 93 90 87 85 83 78 72 52 63 68 75 74 65 62 60 57 51 61
156 158 141 152 145 139 139 136 128 134 140 130 125 119 114 111 121 124 108 101 100 103 98 99 98 96 94 92 89 85 81 75 65 74 64 55 56 63 63 57 63 58 44
155 161 139 155 146 143 143 139 136 139 149 137 130 119 123 120 124 128 113 101 103 106 106 101 101 100 97 93 92 87 82 59 69 74 69 67 65 61 59 59 55 54 50
159 158 159 161 149 148 148 146 147 165 135 141 130 122 127 131 129 133 116 114 108 101 104 107 106 104 100 97 95 89 77 39 75 78 86 80 67 67 59 53 50 49 44
161 163 156 154 146 147 150 144 147 142 123 135 122 130 144 134 136 138 128 118 112 112 113 112 108 106 104 98 94 87 74 34 86 75 62 66 52 58 45 35 32 46 50
169 169 171 168 159 144 149 146 150 151 142 124 122 130 136 127 135 125 138 121 122 121 112 119 119 112 106 106 99 91 75 13 84 75 73 56 35 40 39 41 34 58 60
175 180 179 180 177 172 165 151 157 157 149 156 134 137 135 123 118 104 128 128 135 130 123 121 128 122 114 108 105 95 100 215 86 86 67 48 11 38 35 34 42 59 64
185 189 188 188 185 184 176 163 160 157 145 132 135 136 159 167 167 166 82 131 129 137 129 119 121 121 112 101 102 114 226 88 86 75 65 19 21 28 38 34 42 48 66
191 191 191 191 195 187 181 169 180 177 181 186 183 177 189 176 169 161 149 141 141 140 128 127 118 124 194 152 136 174 143 116 113 81 68 14 16 26 34 31 37 46 67
188 192 197 195 194 196 187 181 183 185 192 190 190 188 193 186 172 181 159 169 163 176 164 164 165 183 163 173 165 175 164 183 170 148 84 4 13 13 26 30 33 36 68
199 194 198 194 194 201 193 196 190 191 194 196 192 189 189 195 189 190 184 180 184 187 177 186 184 177 177 184 193 189 210 232 228 260 119 22 353 353 6 15 23 14 89
209 197 199 196 194 194 199 198 203 200 203 202 195 192 198 200 198 196 193 192 194 184 189 192 193 192 193 200 202 215 219 225 242 259 275 118 302 320 348 352 360 1 115
215 205 196 200 197 190 201 197 197 199 198 202 200 199 204 204 201 200 200 201 201 200 195 206 204 204 206 211 216 218 232 235 238 250 251 200 203 272 303 322 359 31 123
218 214 204 202 198 195 196 198 200 201 196 207 204 202 202 206 207 203 203 206 207 199 203 207 209 215 217 213 232 222 229 237 243 240 245 256 186 195 238 272 278 12 80
212 211 208 204 200 202 197 197 200 201 201 199 210 203 206 206 211 206 207 208 203 201 207 212 213 215 224 221 227 222 224 230 231 234 251 242 231 219 184 220 291 358 254
212 207 212 206 206 204 205 198 205 202 203 198 211 212 207 207 209 213 214 212 201 205 208 214 215 225 219 223 229 231 232 228 220 228 235 230 219 225 216 155 197 235 280
213 211 208 209 210 205 204 208 200 204 205 202 210 213 211 209 208 210 216 215 206 208 212 212 219 210 232 234 219 233 233 219 215 228 238 220 215 210 213 210 185 199 216
212 209 212 204 207 200 201 199 204 208 208 213 212 212 212 211 208 210 216 216 211 213 213 211 212 218 215 221 229 227 236 226 233 229 228 223 206 208 208 195 193 189 195
210 209 208 209 204 203 201 201 206 209 217 215 214 215 214 213 211 212 213 214 213 215 217 212 209 210 226 201 219 241 243 204 217 221 210 213 210 195 204 201 202 192 194
221 210 206 205 202 201 206 200 207 215 217 207 211 214 215 214 214 211 214 215 213 214 215 213 210 213 214 206 219 224 196 230 159 176 214 214 216 209 208 205 205 203 204
221 212 210 205 205 207 199 200 202 205 203 213 209 209 210 213 214 214 214 215 215 212 218 213 211 215 218 217 207 230 239 257 213 212 209 226 218 223 222 221 220 218 213
225 214 215 210 206 203 204 205 202 209 214 209 204 209 209 211 215 211 209 213 213 211 217 216 207 212 213 217 209 198 221 223 236 243 244 197 228 227 221 216 215 215 215
224 216 213 214 213 202 199 205 207 209 212 208 206 205 205 207 208 213 211 213 211 213 214 215 213 213 214 215 218 215 206 191 201 212 232 239 234 209 213 215 216 216 210